Regional Weather Roundup
Issued by NWS

Home | Current Version | Previous Version | Graphics & Text | Print | Product List | Glossary On
Versions: 1 2 3 4 5 6 7 8 9 10 11 12 13 14 15 16 17 18 19 20 21 22 23 24 25 26 27 28 29 30 31 32 33 34 35 36 37 38 39 40 41 42 43 44 45 46 47 48 49 50
000
ASUS43 KDTX 282110
RWRMI
MICHIGAN HOURLY REGIONAL WEATHER ROUNDUP
NATIONAL WEATHER SERVICE DETROIT/PONTIAC MI
500 PM EDT FRI AUG 28 2015

NOTE: "FAIR" INDICATES FEW OR NO CLOUDS BELOW 12,000 FEET WITH NO
SIGNIFICANT WEATHER AND/OR OBSTRUCTION TO VISIBILITY.

MIZ047>049-052>055-059>063-066>070-074>076-081>083-282200-
SOUTHEAST LOWER MICHIGAN

CITY           SKY/WX    TMP DP  RH WIND       PRES   REMARKS
ADRIAN         PTSUNNY   76  57  51 SW7       30.15F
ALMA           CLOUDY    74  60  61 SW5       30.13F
ANN ARBOR      CLOUDY    75  58  55 SW7       30.14F
BAD AXE        PTSUNNY   72  56  57 W5        30.15S
DETROIT CITY   MOSUNNY   74  57  55 SW6       30.14F
DETROIT        CLOUDY    74  59  59 SE9       30.15F
FLINT          CLOUDY    77  57  50 SW6       30.13F
GROSSE ILE     PTSUNNY   72  61  68 SE6       30.14F
HILLSDALE      PTSUNNY   75  61  62 S5        30.15F
HOWELL         PTSUNNY   75  56  51 SW7       30.14F

CITY           SKY/WX    TMP DP  RH WIND       PRES   REMARKS
JACKSON        PTSUNNY   74  60  61 SW6       30.14F
LAMBERTVILLE   CLOUDY    76  57  51 CALM      30.15S
LANSING        PTSUNNY   75  59  57 SW9       30.13F
LAPEER         NOT AVBL
MASON          PTSUNNY   75  56  51 CALM      30.14S
MONROE         CLOUDY    74  60  60 E5        30.14S
MT. CLEMENS    CLOUDY    71  61  70 SE8       30.13F
PONTIAC        CLOUDY    74  55  51 S7        30.14F
PORT HOPE        N/A     68  61  78 NW8       30.13F
PORT HURON     MOSUNNY   73  57  56 S3        30.15F
TRI CITIES     PTSUNNY   74  58  57 SW6       30.13F
YPSILANTI      CLOUDY    79  59  50 S8        30.15F
$$
MIZ043>046-050>051-056>058-064>065-071>073-077>080-282200-
SOUTHWEST LOWER MICHIGAN

CITY           SKY/WX    TMP DP  RH WIND       PRES   REMARKS
BATTLE CREEK   CLOUDY    76  61  59 CALM      30.14F
BENTON HARBOR  CLOUDY    74  62  66 W5        30.11F
BIG RAPIDS     CLOUDY    72  57  59 SW5       30.12F
COLDWATER      PTSUNNY   74  60  61 CALM      30.13F
HOLLAND        CLOUDY    74  60  61 SW5       30.12F
GRAND RAPIDS   CLOUDY    75  59  57 W8        30.12F
KALAMAZOO      CLOUDY    76  58  53 SW7       30.13F
MARSHALL       PTSUNNY   76  60  59 W5        30.13F
MUSKEGON       CLOUDY    72  59  63 SW5       30.12F
$$
MIZ016>042-282200-
NORTHERN LOWER MICHIGAN

CITY           SKY/WX    TMP DP  RH WIND       PRES   REMARKS
ALPENA         MOSUNNY   75  54  47 S7        30.09F
BEAVER ISLAND  PTSUNNY   69  60  71 SW16G23   30.06F
BELLAIRE       PTSUNNY   75  55  50 SW5       30.08F
CADILLAC       PTSUNNY   72  57  60 S5        30.11F
CHARLEVOIX     CLOUDY    71  62  72 W7        30.11F
FRANKFORT      CLOUDY    71  60  68 SW9       30.10S
GAYLORD        PTSUNNY   73  55  53 S12       30.11F
GRAYLING       MOSUNNY   72  55  55 CALM      30.13S
HARBOR SPRINGS CLOUDY    71  62  72 W7        30.08F
HOUGHTON LAKE  MOSUNNY   72  55  55 S8        30.13F
MANISTEE       CLOUDY    72  55  56 S10       30.11S
OSCODA         MOSUNNY   72  55  54 S9        30.12F
PELLSTON       PTSUNNY   73  59  61 SW9       30.08F
TRAVERSE CITY  CLOUDY    77  58  51 VRB6      30.07F
$$
MIZ007>008-015-282200-
EASTERN UPPER MICHIGAN

CITY           SKY/WX    TMP DP  RH WIND       PRES   REMARKS
KINROSS        PTSUNNY   72  59  64 SW9G20    30.06F
MACKINAC ISLAN PTSUNNY   70  57  63 W8        30.07F
NEWBERRY       PTSUNNY   71  59  66 S22G28    30.02F
S. S. MARIE    PTSUNNY   72  59  63 SW12      30.04F
$$
MIZ004>006-011>014-085-282200-
CENTRAL UPPER MICHIGAN

CITY           SKY/WX    TMP DP  RH WIND       PRES   REMARKS
MANISTIQUE     PTSUNNY   67  61  81 S10G16    30.04F
ESCANABA       CLOUDY    70  61  73 S17G23    30.01F
MENOMINEE      CLOUDY    72  61  68 SW12      30.03F
SAWYER-GWINN   PTSUNNY   75  63  64 S17       30.01S
$$
MIZ001>003-009>011-084-282200-
WESTERN UPPER MICHIGAN

CITY           SKY/WX    TMP DP  RH WIND       PRES   REMARKS
IRON MOUNTAIN  CLOUDY    75  62  64 SW9       30.00F
HOUGHTON       CLOUDY    71  62  73 W7        29.95F
COPPER HARBOR    N/A     69  62  78 N12       29.94F
IRONWOOD       PTSUNNY   77  64  65 W10G20    29.95F
$$

ABBREVIATIONS USED IN REMARKS
   TC - TEMPERATURE IN CELSIUS
  WCI - WIND CHILL INDEX
   HX - HEAT INDEX
  VSB - VISIBILITY



USA.gov is the U.S. government's official web portal to all federal, state and local government web resources and services.